Retour au catalogue

STARLINK-31148

ActifCommunicationsVLEO
NORAD 58741·PAYLOAD·🇺🇸 United States

Lancé Jan 7, 2024 depuis Cape Canaveral Space Force Station

Loading…

Prochains Passages (prochaines 24 heures)

TLE

FraisSource: CelesTrak SupGP

Époque: Sep 14, 2026, 21:29 UTC

1 58741C 24005P   26257.89562500  .00037872  00000+0  13720-2 0  2571
2 58741  43.0001 230.9634 0001108 257.7418  90.9920 15.27552309    15

Suivez STARLINK-31148 en temps réel avec AllMySat

Download on the App Store